アトラス彗星

C/2024 A1 ( ATLAS )

English version
Home page
Updated on May 21, 2024

---------------------------------------------------------------------

・ プロフィール

発見日 2024年1月3日
発見光度 18.8等
発見者 Asteroid Terrestrial-Impact Last Alert System (ATLAS) search program

・ 写真集

・ 軌道要素

Epoch 2024 Mar. 31.0 TT = JDT 2460400.5
T 2025 June 13.66547 TT                                 Rudenko
q   3.8759310            (2000.0)            P               Q
z  -0.0003424      Peri.  353.29398     -0.38264952     +0.02734188
 +/-0.0000022      Node   112.13800     +0.88720924     -0.26799409
e   1.0013271      Incl.   94.44811     +0.25775785     +0.96303250
>From 230 observations 2024 Jan. 3-May 13, mean residual 0".4.

・ 星図

・ 光度変化

        m1 = 6.5 + 5 logΔ + 10.0 log r

---------------------------------------------------------------------

軌道要素はM.P.E.C. 2024-J304に掲載されたものです。
星図はステラナビゲータ Ver.11 (アストロアーツ) で作成したものです。
光度グラフはComet for Windowsで作成したものです。

---------------------------------------------------------------------

Copyright(C) Seiichi Yoshida (comet@aerith.net). All rights reserved.